FW1417 Weather Reports


Display with metric or nautical units.
time (UTC)temp
F
wind
direction
speed
MPH
gust
MPH
rain 1hr
in
rain 24hr
in
rain mn
in
humidity
%
barometer
mb
20180620230654 78 197 6.0 12.0 0.00 0.00 0.00 62 1007.8
20180620230155 78 207 5.0 13.0 0.00 0.00 0.00 62 1007.8
20180620225655 78 179 5.0 13.0 0.00 0.00 0.00 62 1007.8
20180620225155 78 217 5.0 13.0 0.00 0.00 0.00 62 1007.9
20180620224655 79 219 3.0 12.0 0.00 0.00 0.00 61 1007.8
20180620224155 79 184 2.0 12.0 0.00 0.00 0.00 61 1007.7
20180620223655 79 217 5.0 12.0 0.00 0.00 0.00 60 1007.9
20180620223155 79 232 5.0 12.0 0.00 0.00 0.00 60 1007.9
20180620222656 79 172 2.0 12.0 0.00 0.00 0.00 60 1007.9
20180620222155 79 175 5.0 12.0 0.00 0.00 0.00 59 1008.0
20180620221654 79 208 4.0 13.0 0.00 0.00 0.00 59 1008.1
20180620221155 79 193 8.0 13.0 0.00 0.00 0.00 59 1008.1
20180620220655 80 223 5.0 13.0 0.00 0.00 0.00 58 1008.1
20180620220154 80 196 5.0 13.0 0.00 0.00 0.00 59 1008.1
20180620215655 80 209 4.0 13.0 0.00 0.00 0.00 59 1008.0
20180620215155 80 174 4.0 12.0 0.00 0.00 0.00 59 1008.0
20180620214655 80 162 3.0 12.0 0.00 0.00 0.00 58 1008.1
20180620214155 80 199 7.0 12.0 0.00 0.00 0.00 57 1008.1
20180620213654 81 175 6.0 12.0 0.00 0.00 0.00 56 1008.1
20180620213155 81 195 2.0 12.0 0.00 0.00 0.00 56 1008.1
20180620212655 81 196 6.0 12.0 0.00 0.00 0.00 56 1008.1
20180620212155 81 195 5.0 7.0 0.00 0.00 0.00 56 1008.2
20180620211654 81 150 2.0 12.0 0.00 0.00 0.00 55 1008.2
20180620211155 81 196 3.0 12.0 0.00 0.00 0.00 54 1008.3
20180620210655 82 176 3.0 12.0 0.00 0.00 0.00 54 1008.2
20180620210155 82 215 5.0 12.0 0.00 0.00 0.00 52 1008.3
20180620205655 82 176 5.0 12.0 0.00 0.00 0.00 51 1008.2
20180620205155 82 210 3.0 12.0 0.00 0.00 0.00 50 1008.4
20180620204654 82 208 3.0 7.0 0.00 0.00 0.00 50 1008.5
20180620204155 82 175 3.0 7.0 0.00 0.00 0.00 49 1008.5
20180620203655 82 120 3.0 10.0 0.00 0.00 0.00 49 1008.6
20180620203154 83 181 3.0 10.0 0.00 0.00 0.00 47 1008.6
20180620202655 84 209 7.0 10.0 0.00 0.00 0.00 46 1008.7
20180620202155 85 213 4.0 10.0 0.00 0.00 0.00 45 1008.8
20180620201655 84 229 2.0 10.0 0.00 0.00 0.00 46 1008.9
20180620201155 83 133 3.0 10.0 0.00 0.00 0.00 45 1009.1
20180620200655 83 152 3.0 8.0 0.00 0.00 0.00 46 1009.1
20180620200155 83 183 3.0 9.0 0.00 0.00 0.00 46 1009.2
20180620195654 82 205 5.0 10.0 0.00 0.00 0.00 47 1009.2
20180620195155 82 196 4.0 10.0 0.00 0.00 0.00 47 1009.3
20180620194655 82 189 5.0 9.0 0.00 0.00 0.00 46 1009.4
20180620194156 83 169 5.0 10.0 0.00 0.00 0.00 46 1009.3
20180620193654 83 196 5.0 10.0 0.00 0.00 0.00 46 1009.3
20180620193155 82 189 6.0 10.0 0.00 0.00 0.00 46 1009.4
20180620192654 82 180 5.0 10.0 0.00 0.00 0.00 47 1009.5
20180620192155 82 178 5.0 10.0 0.00 0.00 0.00 46 1009.5
20180620191655 82 185 3.0 9.0 0.00 0.00 0.00 46 1009.5
20180620191155 81 217 3.0 9.0 0.00 0.00 0.00 47 1009.6
20180620190655 81 172 3.0 9.0 0.00 0.00 0.00 47 1009.6
20180620190155 81 186 5.0 12.0 0.00 0.00 0.00 47 1009.6
20180620185655 81 184 5.0 12.0 0.00 0.00 0.00 46 1009.6
20180620185155 82 201 5.0 12.0 0.00 0.00 0.00 45 1009.6
20180620184655 82 199 5.0 12.0 0.00 0.00 0.00 47 1009.6
20180620184155 82 182 6.0 12.0 0.00 0.00 0.00 46 1009.7
20180620183655 82 186 4.0 9.0 0.00 0.00 0.00 43 1009.7
20180620183155 83 150 3.0 12.0 0.00 0.00 0.00 40 1009.7
20180620182655 82 166 3.0 12.0 0.00 0.00 0.00 40 1009.8
20180620182154 82 139 3.0 12.0 0.00 0.00 0.00 39 1009.8
20180620181655 82 178 4.0 12.0 0.00 0.00 0.00 37 1009.9
20180620181154 83 180 3.0 13.0 0.00 0.00 0.00 36 1009.9
20180620180655 83 175 3.0 13.0 0.00 0.00 0.00 36 1009.8
20180620180155 83 213 6.0 13.0 0.00 0.00 0.00 36 1009.9
20180620175655 82 197 4.0 12.0 0.00 0.00 0.00 38 1009.9
20180620175155 82 188 6.0 12.0 0.00 0.00 0.00 38 1009.9
20180620174655 82 190 4.0 12.0 0.00 0.00 0.00 39 1010.1
20180620174155 82 201 6.0 13.0 0.00 0.00 0.00 39 1010.2
20180620173655 82 200 4.0 13.0 0.00 0.00 0.00 39 1010.2
20180620173155 82 213 6.0 13.0 0.00 0.00 0.00 39 1010.2
20180620172655 82 158 4.0 13.0 0.00 0.00 0.00 39 1010.2
20180620172155 83 219 5.0 13.0 0.00 0.00 0.00 38 1010.3
20180620171655 82 204 4.0 9.0 0.00 0.00 0.00 39 1010.3
20180620171155 82 172 4.0 10.0 0.00 0.00 0.00 39 1010.4
20180620170654 82 208 3.0 10.0 0.00 0.00 0.00 38 1010.4
20180620170155 82 206 4.0 13.0 0.00 0.00 0.00 40 1010.5
20180620165655 81 201 6.0 13.0 0.00 0.00 0.00 40 1010.7
20180620165155 81 215 7.0 14.0 0.00 0.00 0.00 38 1010.8
20180620164655 82 177 4.0 14.0 0.00 0.00 0.00 39 1010.8
20180620164155 82 214 5.0 12.0 0.00 0.00 0.00 38 1010.8
20180620163656 81 218 6.0 12.0 0.00 0.00 0.00 39 1010.9
20180620163155 82 221 5.0 12.0 0.00 0.00 0.00 39 1011.1
20180620162656 81 203 6.0 12.0 0.00 0.00 0.00 39 1011.2
20180620162155 81 207 5.0 12.0 0.00 0.00 0.00 40 1011.2
20180620161655 81 159 5.0 9.0 0.00 0.00 0.00 39 1011.2
20180620161156 81 208 5.0 10.0 0.00 0.00 0.00 39 1011.2
20180620160655 81 187 4.0 10.0 0.00 0.00 0.00 38 1011.2
20180620160155 80 209 2.0 12.0 0.00 0.00 0.00 39 1011.2
20180620155655 80 190 4.0 12.0 0.00 0.00 0.00 39 1011.2
20180620155155 80 190 6.0 12.0 0.00 0.00 0.00 38 1011.2
20180620154655 80 191 4.0 12.0 0.00 0.00 0.00 38 1011.2
20180620154155 80 224 5.0 12.0 0.00 0.00 0.00 39 1011.2
20180620153655 81 187 3.0 9.0 0.00 0.00 0.00 38 1011.3
20180620153155 80 207 2.0 7.0 0.00 0.00 0.00 40 1011.5
20180620152655 80 227 3.0 7.0 0.00 0.00 0.00 40 1011.5
20180620152155 80 185 0.0 6.0 0.00 0.00 0.00 41 1011.5
20180620151655 79 160 1.0 6.0 0.00 0.00 0.00 42 1011.6
20180620151155 80 187 2.0 6.0 0.00 0.00 0.00 42 1011.6
20180620150655 80 121 1.0 3.0 0.00 0.00 0.00 43 1011.7
20180620150155 79 34 1.0 3.0 0.00 0.00 0.00 42 1011.7
20180620145655 79 111 2.0 3.0 0.00 0.00 0.00 43 1011.8
20180620145154 78 200 0.0 3.0 0.00 0.00 0.00 43 1011.8
20180620144655 79 209 2.0 5.0 0.00 0.00 0.00 42 1011.8
20180620144155 79 179 2.0 5.0 0.00 0.00 0.00 42 1011.8
20180620143655 78 222 0.0 6.0 0.00 0.00 0.00 43 1011.8
20180620143155 78 180 3.0 6.0 0.00 0.00 0.00 43 1011.8
20180620142655 77 196 1.0 6.0 0.00 0.00 0.00 43 1012.0
20180620142154 78 26 1.0 3.0 0.00 0.00 0.00 43 1012.2
20180620141655 77 31 1.0 5.0 0.00 0.00 0.00 44 1012.1
20180620141155 76 47 2.0 6.0 0.00 0.00 0.00 45 1012.2
20180620140655 76 24 5.0 7.0 0.00 0.00 0.00 45 1012.2
20180620140155 76 5 3.0 7.0 0.00 0.00 0.00 45 1012.2
20180620135655 76 38 3.0 5.0 0.00 0.00 0.00 44 1012.2
20180620135155 76 68 1.0 3.0 0.00 0.00 0.00 45 1012.3
20180620134654 75 69 0.0 5.0 0.00 0.00 0.00 45 1012.3
20180620134155 75 46 2.0 5.0 0.00 0.00 0.00 45 1012.4
20180620133655 75 48 3.0 6.0 0.00 0.00 0.00 45 1012.5
20180620133155 75 28 2.0 7.0 0.00 0.00 0.00 45 1012.5
20180620132654 74 30 2.0 7.0 0.00 0.00 0.00 45 1012.4
20180620132154 75 42 4.0 7.0 0.00 0.00 0.00 45 1012.5
20180620131655 75 349 3.0 7.0 0.00 0.00 0.00 46 1012.5
20180620131155 75 37 3.0 9.0 0.00 0.00 0.00 45 1012.7
20180620130655 75 5 5.0 10.0 0.00 0.00 0.00 45 1012.7
20180620130155 75 74 3.0 10.0 0.00 0.00 0.00 45 1012.7
20180620125656 75 24 4.0 7.0 0.00 0.00 0.00 45 1012.6
20180620125155 75 55 2.0 5.0 0.00 0.00 0.00 46 1012.5
20180620124655 74 13 0.0 5.0 0.00 0.00 0.00 46 1012.4
20180620124154 74 77 3.0 5.0 0.00 0.00 0.00 47 1012.4
20180620123655 74 51 0.0 6.0 0.00 0.00 0.00 47 1012.4
20180620123155 73 35 1.0 6.0 0.00 0.00 0.00 47 1012.4
20180620122655 74 49 2.0 7.0 0.00 0.00 0.00 46 1012.5
20180620122155 73 49 2.0 7.0 0.00 0.00 0.00 47 1012.5
20180620121655 73 9 2.0 6.0 0.00 0.00 0.00 47 1012.6
20180620121155 73 17 3.0 6.0 0.00 0.00 0.00 47 1012.6
20180620120655 73 44 4.0 7.0 0.00 0.00 0.00 46 1012.6
20180620120155 73 50 3.0 7.0 0.00 0.00 0.00 46 1012.6
20180620115655 73 58 2.0 7.0 0.00 0.00 0.00 47 1012.7
20180620115155 73 25 4.0 7.0 0.00 0.00 0.00 46 1012.7
20180620114655 73 32 2.0 6.0 0.00 0.00 0.00 46 1012.7
20180620114155 73 28 3.0 5.0 0.00 0.00 0.00 46 1012.7
20180620113655 73 55 0.0 3.0 0.00 0.00 0.00 45 1012.7
20180620113155 73 55 0.0 3.0 0.00 0.00 0.00 46 1012.6
20180620112655 73 37 0.0 0.0 0.00 0.00 0.00 46 1012.7
20180620112154 72 36 0.0 6.0 0.00 0.00 0.00 47 1012.7
20180620111655 72 37 1.0 6.0 0.00 0.00 0.00 46 1012.7
20180620111155 72 16 3.0 6.0 0.00 0.00 0.00 48 1012.7
20180620110655 73 64 3.0 5.0 0.00 0.00 0.00 46 1012.6
20180620110155 73 43 2.0 5.0 0.00 0.00 0.00 45 1012.6
20180620105655 73 51 1.0 3.0 0.00 0.00 0.00 46 1012.5
20180620105156 73 73 1.0 3.0 0.00 0.00 0.00 45 1012.5
20180620104655 73 65 1.0 3.0 0.00 0.00 0.00 45 1012.6
20180620104155 72 59 1.0 9.0 0.00 0.00 0.00 44 1012.7
20180620103655 72 57 2.0 9.0 0.00 0.00 0.00 44 1012.8
20180620103155 72 22 1.0 3.0 0.00 0.00 0.00 44 1012.8
20180620102655 72 84 1.0 3.0 0.00 0.00 0.00 44 1012.7
20180620102155 72 42 1.0 3.0 0.00 0.00 0.00 45 1012.6
20180620101655 72 58 0.0 3.0 0.00 0.00 0.00 45 1012.5
20180620101155 72 82 0.0 5.0 0.00 0.00 0.00 44 1012.4
20180620100655 72 82 1.0 5.0 0.00 0.00 0.00 44 1012.5
20180620100155 72 65 1.0 3.0 0.00 0.00 0.00 44 1012.4
20180620095655 72 49 2.0 5.0 0.00 0.00 0.00 44 1012.5
20180620095155 72 63 1.0 5.0 0.00 0.00 0.00 45 1012.5
20180620094655 72 62 2.0 5.0 0.00 0.00 0.00 45 1012.4
20180620094155 72 58 0.0 5.0 0.00 0.00 0.00 44 1012.3
20180620093655 72 57 3.0 5.0 0.00 0.00 0.00 44 1012.3
20180620093155 72 66 1.0 3.0 0.00 0.00 0.00 44 1012.2
20180620092655 72 39 1.0 9.0 0.00 0.00 0.00 45 1012.2
20180620092155 72 55 3.0 9.0 0.00 0.00 0.00 44 1012.2
20180620091155 72 46 2.0 3.0 0.00 0.00 0.00 45 1012.2
20180620090655 73 132 1.0 3.0 0.00 0.00 0.00 45 1012.2
20180620090155 73 30 0.0 3.0 0.00 0.00 0.00 45 1012.2
20180620085655 73 42 1.0 3.0 0.00 0.00 0.00 46 1012.1
20180620085155 73 63 1.0 3.0 0.00 0.00 0.00 46 1012.0
20180620084655 73 105 1.0 3.0 0.00 0.00 0.00 46 1011.9
20180620084155 73 48 2.0 3.0 0.00 0.00 0.00 49 1011.8
20180620083655 73 51 1.0 3.0 0.00 0.00 0.00 50 1011.7
20180620083155 73 43 1.0 3.0 0.00 0.00 0.00 52 1011.7
20180620082656 73 34 2.0 8.0 0.00 0.00 0.00 53 1011.7
20180620082155 73 58 2.0 8.0 0.00 0.00 0.00 53 1011.7
20180620081655 73 36 2.0 9.0 0.00 0.00 0.00 52 1011.7
20180620081156 73 36 5.0 9.0 0.00 0.00 0.00 52 1011.7
20180620080655 73 44 2.0 7.0 0.00 0.00 0.00 53 1011.7
20180620080155 74 25 3.0 6.0 0.00 0.00 0.00 53 1011.7
20180620075655 74 29 3.0 5.0 0.00 0.00 0.00 53 1011.7
20180620075155 74 24 2.0 6.0 0.00 0.00 0.00 53 1011.7
20180620074654 74 38 0.0 6.0 0.00 0.00 0.00 53 1011.6
20180620074156 74 55 1.0 5.0 0.00 0.01 0.00 52 1011.6
20180620073655 74 49 2.0 5.0 0.00 0.01 0.00 51 1011.7
20180620073155 74 44 3.0 6.0 0.00 0.01 0.00 52 1011.7
20180620072655 74 26 1.0 6.0 0.00 0.01 0.00 51 1011.7
20180620072156 74 22 3.0 6.0 0.00 0.01 0.00 51 1011.7
20180620071655 75 39 3.0 6.0 0.00 0.01 0.00 50 1011.7
20180620071155 75 22 3.0 5.0 0.00 0.01 0.00 50 1011.7
20180620070655 75 26 2.0 6.0 0.00 0.01 0.00 50 1011.8
20180620070155 75 42 2.0 6.0 0.00 0.01 0.00 50 1011.8
20180620065655 75 18 3.0 6.0 0.00 0.01 0.00 51 1011.8
20180620065155 75 38 3.0 6.0 0.00 0.01 0.00 50 1011.8
20180620064654 75 30 3.0 7.0 0.00 0.01 0.00 50 1011.8
20180620064155 75 11 2.0 7.0 0.00 0.01 0.00 50 1011.7
20180620063655 75 36 3.0 9.0 0.00 0.01 0.00 50 1011.7
20180620063155 75 35 3.0 9.0 0.00 0.01 0.00 50 1011.7
20180620062656 75 47 3.0 5.0 0.00 0.01 0.00 50 1011.7
20180620062155 75 19 2.0 6.0 0.00 0.01 0.00 50 1011.7
20180620061655 75 49 3.0 6.0 0.00 0.01 0.00 49 1011.7
20180620061155 76 24 3.0 6.0 0.00 0.01 0.00 49 1011.7
20180620060655 76 41 3.0 7.0 0.00 0.01 0.00 49 1011.7
20180620060155 76 42 3.0 7.0 0.00 0.01 0.00 49 1011.7
20180620055655 76 0 2.0 6.0 0.00 0.01 0.00 49 1011.7
20180620055156 76 20 3.0 7.0 0.00 0.01 0.00 49 1011.7
20180620054655 76 47 3.0 7.0 0.00 0.02 0.00 48 1011.7
20180620054155 76 42 3.0 7.0 0.00 0.02 0.00 48 1011.7
20180620053656 76 56 3.0 7.0 0.00 0.02 0.00 48 1011.7
20180620053155 76 40 3.0 8.0 0.00 0.02 0.00 49 1011.7
20180620052655 76 16 3.0 8.0 0.00 0.02 0.00 49 1011.7
20180620052155 76 27 4.0 7.0 0.00 0.02 0.00 49 1011.7
20180620051655 76 47 3.0 9.0 0.00 0.02 0.00 48 1011.7
20180620051155 77 28 4.0 9.0 0.00 0.02 0.00 48 1011.6
20180620050655 77 35 5.0 7.0 0.00 0.02 0.00 48 1011.6
20180620050155 77 28 2.0 7.0 0.00 0.02 0.00 47 1011.6
20180620045656 77 48 3.0 12.0 0.00 0.02 0.00 47 1011.6
20180620045155 77 5 6.0 12.0 0.00 0.02 0.00 46 1011.6
20180620044655 77 11 3.0 10.0 0.00 0.02 0.00 47 1011.6
20180620044155 77 26 3.0 12.0 0.00 0.02 0.00 47 1011.6
20180620043655 77 37 5.0 12.0 0.00 0.02 0.00 47 1011.6
20180620043156 77 28 5.0 9.0 0.00 0.02 0.00 47 1011.5
20180620042655 78 44 3.0 9.0 0.00 0.02 0.00 47 1011.4
20180620042155 78 80 5.0 10.0 0.00 0.02 0.00 47 1011.4
20180620041655 78 31 4.0 10.0 0.00 0.02 0.00 47 1011.5
20180620041155 78 13 3.0 9.0 0.00 0.02 0.00 47 1011.5
20180620040655 78 48 4.0 9.0 0.00 0.02 0.00 47 1011.4
20180620040155 78 41 4.0 9.0 0.00 0.02 0.00 46 1011.4
20180620035655 78 20 4.0 8.0 0.00 0.02 0.02 46 1011.2
20180620035155 78 0 3.0 7.0 0.00 0.02 0.02 46 1011.2
20180620034655 78 51 2.0 7.0 0.00 0.02 0.02 46 1011.2
20180620034155 78 32 4.0 7.0 0.00 0.02 0.02 46 1011.1
20180620033655 79 26 2.0 5.0 0.00 0.02 0.02 45 1011.1
20180620033155 79 36 2.0 7.0 0.00 0.02 0.02 45 1011.2
20180620032655 79 49 3.0 7.0 0.00 0.02 0.02 44 1011.2
20180620032155 79 43 3.0 7.0 0.00 0.02 0.02 43 1011.2
20180620031655 79 30 5.0 7.0 0.00 0.02 0.02 43 1011.2
20180620031155 79 11 3.0 7.0 0.00 0.02 0.02 43 1011.2
20180620030655 79 46 5.0 7.0 0.00 0.02 0.02 43 1011.2
20180620030155 79 48 3.0 7.0 0.00 0.02 0.02 43 1011.2
20180620025655 79 23 3.0 7.0 0.00 0.02 0.02 43 1011.2
20180620025155 79 69 4.0 7.0 0.00 0.02 0.02 44 1011.2
20180620024656 80 40 4.0 9.0 0.00 0.02 0.02 43 1011.3
20180620024155 80 33 3.0 9.0 0.00 0.02 0.02 42 1011.3
20180620023655 80 17 3.0 9.0 0.00 0.02 0.02 41 1011.3
20180620023155 80 8 3.0 7.0 0.00 0.02 0.02 41 1011.3
20180620022655 80 29 3.0 7.0 0.00 0.02 0.02 41 1011.3
20180620022155 80 28 3.0 7.0 0.00 0.02 0.02 41 1011.3
20180620021655 80 59 3.0 10.0 0.00 0.02 0.02 41 1011.3
20180620021155 80 42 3.0 10.0 0.00 0.02 0.02 40 1011.3
20180620020655 80 40 5.0 10.0 0.00 0.02 0.02 40 1011.2
20180620020156 80 15 4.0 10.0 0.00 0.02 0.02 40 1011.2
20180620015656 80 40 5.0 12.0 0.00 0.02 0.02 40 1011.2
20180620015155 80 33 6.0 12.0 0.00 0.02 0.02 40 1011.2
20180620014655 80 33 6.0 12.0 0.00 0.02 0.02 41 1011.2
20180620014155 80 28 4.0 6.0 0.00 0.02 0.02 41 1011.1
20180620013655 80 18 3.0 9.0 0.00 0.02 0.02 42 1011.1
20180620013155 81 44 5.0 9.0 0.00 0.02 0.02 42 1010.9
20180620012655 81 32 4.0 9.0 0.00 0.02 0.02 42 1010.8
20180620012155 81 43 4.0 9.0 0.00 0.02 0.02 42 1010.7
20180620011655 82 26 4.0 9.0 0.00 0.02 0.02 41 1010.6
20180620011155 82 54 5.0 7.0 0.00 0.02 0.02 40 1010.3
20180620010655 82 9 3.0 6.0 0.00 0.02 0.02 39 1010.2
20180620010155 83 42 2.0 6.0 0.00 0.03 0.02 37 1010.1
20180620005655 83 62 2.0 5.0 0.00 0.04 0.02 35 1010.1
20180620005155 83 5 2.0 12.0 0.00 0.06 0.02 34 1010.1
20180620004655 84 33 2.0 12.0 0.00 0.07 0.02 34 1009.9
20180620004155 84 36 3.0 7.0 0.00 0.09 0.02 33 1009.8
20180620003655 84 38 3.0 7.0 0.00 0.10 0.02 32 1009.7
20180620003155 84 355 3.0 9.0 0.00 0.10 0.02 31 1009.7
20180620002655 85 0 5.0 9.0 0.00 0.10 0.02 30 1009.6
20180620002155 85 346 3.0 7.0 0.00 0.10 0.02 30 1009.6
20180620001655 85 22 2.0 7.0 0.00 0.10 0.02 30 1009.6
20180620001155 85 19 2.0 9.0 0.00 0.10 0.02 30 1009.5
20180620000655 85 34 2.0 9.0 0.00 0.10 0.02 30 1009.4
20180620000155 85 285 1.0 9.0 0.00 0.10 0.02 30 1009.2
20180619235655 85 325 1.0 10.0 0.00 0.10 0.02 30 1009.2
20180619235155 86 14 3.0 10.0 0.00 0.10 0.02 29 1009.2
20180619234655 86 331 3.0 7.0 0.00 0.10 0.02 29 1009.2
20180619234155 86 4 2.0 12.0 0.00 0.10 0.02 29 1009.1
20180619233655 86 319 2.0 12.0 0.00 0.10 0.02 29 1009.1
20180619233155 87 1 3.0 12.0 0.00 0.10 0.02 29 1009.1
20180619232655 87 1 3.0 6.0 0.00 0.10 0.02 29 1009.0
20180619232155 87 33 3.0 10.0 0.00 0.10 0.02 29 1008.9
20180619231655 87 0 3.0 10.0 0.00 0.10 0.02 29 1008.9
20180619231155 88 15 4.0 10.0 0.00 0.10 0.02 29 1008.9